Regional Weather Roundup
Issued by NWS

Home | Current Version | Previous Version | Graphics & Text | Print | Product List | Glossary Off
Versions: 1 2 3 4 5 6 7 8 9 10 11 12 13 14 15 16 17 18 19 20 21 22 23 24 25 26 27 28 29 30 31 32 33 34 35 36 37 38 39 40 41 42 43 44 45 46 47 48 49 50

000
ASUS43 KTOP 281159
RWRKS

WEATHER ROUNDUP FOR KANSAS
NATIONAL WEATHER SERVICE GOODLAND KS
600 AM CST SAT FEB 28 2015

NOTE:  "FAIR" INDICATES FEW OR NO CLOUDS BELOW 12,000 FEET WITH NO
SIGNIFICANT WEATHER AND/OR OBSTRUCTIONS TO VISIBILITY.

KSZ001>006-013>018-027>032-041>047-281300-
NORTHWEST KANSAS

CITY           SKY/WX    TMP DP  RH WIND       PRES   REMARKS
GOODLAND       LGT SNOW  10   6  84 S13       30.09R FOG     WCI  -5
6HR MIN TEMP:   9; 6HR MAX TEMP:  11; 6HR PCP: TRACE;

HAYS           CLOUDY    14   3  62 SE10      30.30S WCI   1
HILL CITY      LGT SNOW  13   9  84 S8        30.28S VSB 1
6HR MIN TEMP:  13; 6HR MAX TEMP:  16; 6HR PCP: TRACE;

RUSSELL        LGT SNOW  14  12  92 SE8       30.32S FOG
6HR MIN TEMP:   9; 6HR MAX TEMP:  14; 6HR PCP: TRACE;

$$

KSZ061>065-074>080-084>089-281300-
SOUTHWEST KANSAS

CITY           SKY/WX    TMP DP  RH WIND       PRES   REMARKS
DODGE CITY     LGT SNOW  11   6  81 SE14      30.25S WCI  -5
6HR MIN TEMP:  11; 6HR MAX TEMP:  12; 6HR PCP:  0.07;

ELKHART          N/A     12   5  73 S15         N/A  WCI  -4
GARDEN CITY    LGT SNOW  10   7  87 SE21      30.18S FOG     WCI  -9
6HR MIN TEMP:   9; 6HR MAX TEMP:  10; 6HR PCP:  0.05;

GREAT BEND     CLOUDY    14   7  73 S13       30.35R WCI   0
LIBERAL        CLOUDY    14   7  73 SE10      30.19F WCI   1
$$

KSZ066>073-081>083-090>101-281300-
SOUTHEAST KANSAS

CITY           SKY/WX    TMP DP  RH WIND       PRES   REMARKS
CHANUTE        CLOUDY    20  13  74 SE6       30.48S
6HR MIN TEMP:  17; 6HR MAX TEMP:  20;

COFFEYVILLE    FLURRIES  20  15  81 SE8       30.49S
6HR MIN TEMP:  17; 6HR MAX TEMP:  20; 6HR PCP: TRACE;

HUTCHINSON     LGT SNOW  16  11  80 SE8       30.39S
6HR MIN TEMP:  14; 6HR MAX TEMP:  16; 6HR PCP: TRACE;

MEDICINE LODGE   N/A     14  11  87 SE6       30.37R
NEWTON         CLOUDY    16   7  67 SE9       30.40S
PARSONS        CLOUDY    21  14  74 SE5       30.49S
6HR MIN TEMP:  16; 6HR MAX TEMP:  21; 6HR PCP: TRACE;

WICHITA INTL   LGT SNOW  17  11  77 SE8       30.41S
6HR MIN TEMP:  16; 6HR MAX TEMP:  17; 6HR PCP: TRACE;

WICHITA JABRA  CLOUDY    16  12  84 SE6       30.40F
6HR MIN TEMP:  14; 6HR MAX TEMP:  16; 6HR PCP: TRACE;

WICHITA MCCONL CLOUDY    16  12  86 SE7       30.40F
WINFIELD       LGT SNOW  17  14  88 SE6       30.43F FOG
6HR MIN TEMP:  15; 6HR MAX TEMP:  18; 6HR PCP: TRACE;

$$

KSZ007>012-019>026-033>040-048>060-102>105-281300-
NORTHEAST KANSAS

CITY           SKY/WX    TMP DP  RH WIND       PRES   REMARKS
EMPORIA        CLOUDY    17   8  67 SE9       30.44F
6HR MIN TEMP:  15; 6HR MAX TEMP:  17;

LAWRENCE       CLOUDY    16   8  71 E6        30.52R
6HR MIN TEMP:  12; 6HR MAX TEMP:  16;

MANHATTAN      CLOUDY    14  11  87 NE3       30.46F
6HR MIN TEMP:   8; 6HR MAX TEMP:  17;

OLATHE IND     CLOUDY    17   8  67 E9        30.50S
6HR MIN TEMP:  16; 6HR MAX TEMP:  17;

OLATHE EXE     CLOUDY    17   8  67 E7        30.49S
6HR MIN TEMP:  16; 6HR MAX TEMP:  17;

SALINA         LGT SNOW  17  11  77 SE8       30.42F
6HR MIN TEMP:   9; 6HR MAX TEMP:  17; 6HR PCP: TRACE;

TOPEKA BILLARD CLOUDY    15   7  70 E5        30.51S
6HR MIN TEMP:  12; 6HR MAX TEMP:  17;

TOPEKA FORBES  CLOUDY    17  10  74 SE5       30.48S
6HR MIN TEMP:  11; 6HR MAX TEMP:  17;

$$



USA.gov is the U.S. government's official web portal to all federal, state and local government web resources and services.